Time,TemperatureF,DewpointF,PressureIn,WindDirection,WindDirectionDegrees,WindSpeedMPH,WindSpeedGustMPH,Humidity,HourlyPrecipIn,Conditions,Clouds,dailyrainin,SoftwareType,DateUTC
2013-01-13 00:03:00,53.3,52.2,30.10,SW,232,0.0,0.0,96,0.00,CLR,,0.00,WeatherDisplay:10.37,2013-01-13 05:03:00,
2013-01-13 00:05:00,53.2,52.1,30.10,SW,231,0.0,0.0,96,0.00,CLR,,0.00,WeatherDisplay:10.37,2013-01-13 05:05:00,
2013-01-13 00:10:00,53.2,52.4,30.11,SW,230,0.0,0.0,97,0.00,CLR,,0.00,WeatherDisplay:10.37,2013-01-13 05:10:00,
2013-01-13 00:15:00,53.4,52.6,30.10,SW,231,0.0,0.0,97,0.00,CLR,,0.00,WeatherDisplay:10.37,2013-01-13 05:15:00,
2013-01-13 00:21:00,53.4,52.6,30.11,SW,231,0.0,0.0,97,0.00,FEW,,0.00,WeatherDisplay:10.37,2013-01-13 05:21:00,
2013-01-13 00:26:00,53.5,52.7,30.11,SW,232,0.0,0.0,97,0.00,FEW,,0.00,WeatherDisplay:10.37,2013-01-13 05:26:00,
2013-01-13 00:31:00,53.5,52.7,30.10,SW,231,0.0,0.0,97,0.00,FEW,,0.00,WeatherDisplay:10.37,2013-01-13 05:31:00,
2013-01-13 00:36:00,53.3,52.5,30.10,SW,231,0.0,0.0,97,0.00,FEW,,0.00,WeatherDisplay:10.37,2013-01-13 05:36:00,
2013-01-13 00:42:00,53.0,52.2,30.10,SW,231,0.0,0.0,97,0.00,FEW,,0.00,WeatherDisplay:10.37,2013-01-13 05:42:00,
2013-01-13 00:47:00,52.6,51.8,30.10,SW,230,0.0,0.0,97,0.00,FEW,,0.00,WeatherDisplay:10.37,2013-01-13 05:47:00,
2013-01-13 00:52:00,52.4,51.6,30.10,SW,229,0.0,0.0,97,0.00,FEW,,0.00,WeatherDisplay:10.37,2013-01-13 05:52:00,
2013-01-13 00:57:00,52.3,51.5,30.10,SW,229,0.0,0.0,97,0.00,FEW,,0.00,WeatherDisplay:10.37,2013-01-13 05:57:00,
2013-01-13 01:02:00,52.2,51.4,30.10,SW,229,0.0,1.0,97,0.00,BKN,,0.00,WeatherDisplay:10.37,2013-01-13 06:02:00,
2013-01-13 01:07:00,52.5,52.0,30.10,SW,229,0.0,0.0,98,0.00,BKN,,0.00,WeatherDisplay:10.37,2013-01-13 06:07:00,
2013-01-13 01:12:00,52.7,52.2,30.10,SW,228,0.0,1.1,98,0.00,BKN,,0.00,WeatherDisplay:10.37,2013-01-13 06:12:00,
2013-01-13 01:17:00,52.6,52.1,30.10,ESE,113,0.5,1.1,98,0.00,OVC,,0.00,WeatherDisplay:10.37,2013-01-13 06:17:00,
2013-01-13 01:23:00,52.2,51.1,30.09,SW,232,0.0,0.0,96,0.00,OVC,,0.00,WeatherDisplay:10.37,2013-01-13 06:23:00,
2013-01-13 01:28:00,52.0,51.2,30.10,East,89,0.0,1.0,97,0.00,OVC,,0.00,WeatherDisplay:10.37,2013-01-13 06:28:00,
2013-01-13 01:34:00,52.4,51.9,30.10,East,89,0.0,0.0,98,0.00,OVC,,0.00,WeatherDisplay:10.37,2013-01-13 06:34:00,
2013-01-13 01:39:00,51.8,51.0,30.09,SSE,159,0.0,0.0,97,0.00,OVC,,0.00,WeatherDisplay:10.37,2013-01-13 06:39:00,
2013-01-13 01:44:00,51.6,50.8,30.10,SSE,159,0.0,0.0,97,0.00,OVC,,0.00,WeatherDisplay:10.37,2013-01-13 06:44:00,
2013-01-13 01:49:00,51.6,50.8,30.10,SSE,159,0.0,0.0,97,0.00,OVC,,0.00,WeatherDisplay:10.37,2013-01-13 06:49:00,
2013-01-13 01:54:00,51.5,50.7,30.10,SSE,159,0.0,0.0,97,0.00,OVC,,0.00,WeatherDisplay:10.37,2013-01-13 06:54:00,
2013-01-13 01:59:00,52.3,51.8,30.10,SSE,159,0.0,0.0,98,0.00,OVC,,0.00,WeatherDisplay:10.37,2013-01-13 06:59:00,
2013-01-13 02:04:00,52.2,51.7,30.10,SSE,159,0.0,0.0,98,0.00,OVC,,0.00,WeatherDisplay:10.37,2013-01-13 07:04:00,
2013-01-13 02:09:00,52.3,51.8,30.10,SSE,160,0.0,0.0,98,0.00,OVC,,0.00,WeatherDisplay:10.37,2013-01-13 07:09:00,
2013-01-13 02:14:00,51.7,50.9,30.10,SSE,159,0.0,0.0,97,0.00,OVC,,0.00,WeatherDisplay:10.37,2013-01-13 07:14:00,
2013-01-13 02:19:00,51.9,51.4,30.10,SSE,159,0.0,0.0,98,0.00,CLR,,0.00,WeatherDisplay:10.37,2013-01-13 07:19:00,
2013-01-13 02:24:00,51.9,51.4,30.10,SSE,160,0.0,0.0,98,0.00,CLR,,0.00,WeatherDisplay:10.37,2013-01-13 07:24:00,
2013-01-13 02:29:00,51.8,51.3,30.10,SSE,160,0.0,0.0,98,0.00,CLR,,0.00,WeatherDisplay:10.37,2013-01-13 07:29:00,
2013-01-13 02:34:00,52.2,51.7,30.10,SSE,159,0.0,0.0,98,0.00,CLR,,0.00,WeatherDisplay:10.37,2013-01-13 07:34:00,
2013-01-13 02:39:00,52.1,51.6,30.10,West,259,0.0,0.0,98,0.00,CLR,,0.00,WeatherDisplay:10.37,2013-01-13 07:39:00,
2013-01-13 02:44:00,52.1,51.6,30.10,West,259,0.0,0.0,98,0.00,CLR,,0.00,WeatherDisplay:10.37,2013-01-13 07:44:00,
2013-01-13 02:49:00,52.3,51.8,30.10,West,259,0.0,0.0,98,0.00,CLR,,0.00,WeatherDisplay:10.37,2013-01-13 07:49:00,
2013-01-13 02:54:00,52.4,51.9,30.10,WSW,258,0.0,0.0,98,0.00,CLR,,0.00,WeatherDisplay:10.37,2013-01-13 07:54:00,
2013-01-13 02:59:00,52.6,52.1,30.10,West,259,0.0,0.0,98,0.00,CLR,,0.00,WeatherDisplay:10.37,2013-01-13 07:59:00,
2013-01-13 03:04:00,52.8,52.2,30.10,West,259,0.0,0.0,98,0.00,CLR,,0.00,WeatherDisplay:10.37,2013-01-13 08:04:00,
2013-01-13 03:10:00,53.0,52.5,30.10,WSW,239,0.0,1.1,98,0.00,CLR,,0.00,WeatherDisplay:10.37,2013-01-13 08:10:00,
2013-01-13 03:15:00,53.2,52.7,30.10,WSW,238,0.0,0.0,98,0.00,CLR,,0.00,WeatherDisplay:10.37,2013-01-13 08:15:00,
2013-01-13 03:20:00,53.4,52.8,30.09,WSW,239,0.0,0.0,98,0.00,CLR,,0.00,WeatherDisplay:10.37,2013-01-13 08:20:00,
2013-01-13 03:25:00,53.6,53.0,30.09,WSW,239,0.0,0.0,98,0.00,CLR,,0.00,WeatherDisplay:10.37,2013-01-13 08:25:00,
2013-01-13 03:30:00,53.7,53.1,30.09,WSW,239,0.0,0.0,98,0.00,CLR,,0.00,WeatherDisplay:10.37,2013-01-13 08:30:00,
2013-01-13 03:35:00,54.1,53.8,30.08,WSW,239,0.0,0.0,99,0.00,CLR,,0.00,WeatherDisplay:10.37,2013-01-13 08:35:00,
2013-01-13 03:40:00,53.9,53.3,30.09,SW,236,0.0,1.1,98,0.00,CLR,,0.00,WeatherDisplay:10.37,2013-01-13 08:40:00,
2013-01-13 03:45:00,53.7,53.1,30.08,SW,236,0.0,0.0,98,0.00,CLR,,0.00,WeatherDisplay:10.37,2013-01-13 08:45:00,
2013-01-13 03:50:00,53.7,53.1,30.08,SW,236,0.0,0.0,98,0.00,CLR,,0.00,WeatherDisplay:10.37,2013-01-13 08:50:00,
2013-01-13 03:56:00,53.9,53.3,30.08,SW,236,0.0,0.0,98,0.00,CLR,,0.00,WeatherDisplay:10.37,2013-01-13 08:56:00,
2013-01-13 04:01:00,53.7,53.1,30.08,SW,236,0.0,0.0,98,0.00,CLR,,0.00,WeatherDisplay:10.37,2013-01-13 09:01:00,
2013-01-13 04:06:00,53.3,52.8,30.08,SW,236,0.0,0.0,98,0.00,CLR,,0.00,WeatherDisplay:10.37,2013-01-13 09:06:00,
2013-01-13 04:11:00,53.4,52.8,30.07,SW,236,0.0,0.0,98,0.00,CLR,,0.00,WeatherDisplay:10.37,2013-01-13 09:11:00,
2013-01-13 04:16:00,53.2,52.7,30.08,SW,236,0.2,1.1,98,0.00,CLR,,0.00,WeatherDisplay:10.37,2013-01-13 09:16:00,
2013-01-13 04:21:00,52.9,52.4,30.08,SW,236,0.0,1.1,98,0.00,CLR,,0.00,WeatherDisplay:10.37,2013-01-13 09:21:00,
2013-01-13 04:26:00,52.7,52.2,30.07,SW,236,0.0,0.0,98,0.00,CLR,,0.00,WeatherDisplay:10.37,2013-01-13 09:26:00,
2013-01-13 04:31:00,52.7,52.2,30.07,SW,236,0.0,0.0,98,0.00,CLR,,0.00,WeatherDisplay:10.37,2013-01-13 09:31:00,
2013-01-13 04:36:00,53.2,52.7,30.07,SW,236,0.0,0.0,98,0.00,CLR,,0.00,WeatherDisplay:10.37,2013-01-13 09:36:00,
2013-01-13 04:41:00,53.0,52.5,30.07,SW,236,0.0,0.0,98,0.00,CLR,,0.00,WeatherDisplay:10.37,2013-01-13 09:41:00,
2013-01-13 04:46:00,53.3,52.8,30.06,SW,236,0.0,0.0,98,0.00,CLR,,0.00,WeatherDisplay:10.37,2013-01-13 09:46:00,
2013-01-13 04:51:00,53.5,52.9,30.06,SW,236,0.0,0.0,98,0.00,CLR,,0.00,WeatherDisplay:10.37,2013-01-13 09:51:00,
2013-01-13 04:56:00,53.3,52.8,30.06,SW,236,0.0,0.0,98,0.00,CLR,,0.00,WeatherDisplay:10.37,2013-01-13 09:56:00,
2013-01-13 05:01:00,53.4,52.8,30.06,SW,236,0.0,0.0,98,0.00,CLR,,0.00,WeatherDisplay:10.37,2013-01-13 10:01:00,
2013-01-13 05:06:00,53.6,53.0,30.06,SW,236,0.0,0.0,98,0.00,CLR,,0.00,WeatherDisplay:10.37,2013-01-13 10:06:00,
2013-01-13 05:11:00,53.6,53.0,30.06,SW,236,0.0,0.0,98,0.00,CLR,,0.00,WeatherDisplay:10.37,2013-01-13 10:11:00,
2013-01-13 05:16:00,53.4,52.8,30.06,SW,236,0.0,0.0,98,0.00,CLR,,0.00,WeatherDisplay:10.37,2013-01-13 10:16:00,
2013-01-13 05:21:00,53.6,53.0,30.07,SW,236,0.0,0.0,98,0.00,CLR,,0.00,WeatherDisplay:10.37,2013-01-13 10:21:00,
2013-01-13 05:26:00,53.5,52.9,30.07,SW,236,0.0,0.0,98,0.00,CLR,,0.00,WeatherDisplay:10.37,2013-01-13 10:26:00,
2013-01-13 05:31:00,53.4,52.8,30.07,WSW,237,0.0,0.0,98,0.00,CLR,,0.00,WeatherDisplay:10.37,2013-01-13 10:31:00,
2013-01-13 05:36:00,53.5,52.9,30.07,SW,236,0.0,0.0,98,0.00,CLR,,0.00,WeatherDisplay:10.37,2013-01-13 10:36:00,
2013-01-13 05:41:00,53.6,53.0,30.07,SW,236,0.0,0.0,98,0.00,CLR,,0.00,WeatherDisplay:10.37,2013-01-13 10:41:00,
2013-01-13 05:46:00,54.0,53.7,30.07,SW,236,0.1,1.1,99,0.00,CLR,,0.00,WeatherDisplay:10.37,2013-01-13 10:46:00,
2013-01-13 05:52:00,54.3,54.0,30.07,SW,236,0.0,0.0,99,0.00,CLR,,0.00,WeatherDisplay:10.37,2013-01-13 10:52:00,
2013-01-13 05:57:00,54.2,53.9,30.07,SW,236,0.0,0.0,99,0.00,CLR,,0.00,WeatherDisplay:10.37,2013-01-13 10:57:00,
2013-01-13 06:02:00,54.4,54.1,30.07,SW,236,0.0,0.0,99,0.00,CLR,,0.00,WeatherDisplay:10.37,2013-01-13 11:02:00,
2013-01-13 06:07:00,53.9,53.3,30.07,SW,236,0.0,0.0,98,0.00,CLR,,0.00,WeatherDisplay:10.37,2013-01-13 11:07:00,
2013-01-13 06:12:00,53.8,53.2,30.07,SW,236,0.0,0.0,98,0.00,CLR,,0.00,WeatherDisplay:10.37,2013-01-13 11:12:00,
2013-01-13 06:17:00,53.7,53.1,30.07,SW,236,0.0,0.0,98,0.00,CLR,,0.00,WeatherDisplay:10.37,2013-01-13 11:17:00,
2013-01-13 06:22:00,53.6,53.0,30.07,SW,236,0.0,0.0,98,0.00,CLR,,0.00,WeatherDisplay:10.37,2013-01-13 11:22:00,
2013-01-13 06:27:00,53.7,53.1,30.07,WSW,237,0.0,0.0,98,0.00,CLR,,0.00,WeatherDisplay:10.37,2013-01-13 11:27:00,
2013-01-13 06:32:00,53.8,53.2,30.07,SW,236,0.0,0.0,98,0.00,CLR,,0.00,WeatherDisplay:10.37,2013-01-13 11:32:00,
2013-01-13 06:37:00,54.2,53.9,30.07,WSW,237,0.0,0.0,99,0.00,CLR,,0.00,WeatherDisplay:10.37,2013-01-13 11:37:00,
2013-01-13 06:42:00,54.2,53.9,30.07,SW,236,0.0,0.0,99,0.00,CLR,,0.00,WeatherDisplay:10.37,2013-01-13 11:42:00,
2013-01-13 06:48:00,54.1,53.8,30.07,SW,236,0.0,0.0,99,0.00,CLR,,0.00,WeatherDisplay:10.37,2013-01-13 11:48:00,
2013-01-13 06:53:00,54.0,53.7,30.07,SW,236,0.0,0.0,99,0.00,CLR,,0.00,WeatherDisplay:10.37,2013-01-13 11:53:00,
2013-01-13 06:58:00,53.9,53.3,30.07,SW,236,0.0,0.0,98,0.00,CLR,,0.00,WeatherDisplay:10.37,2013-01-13 11:58:00,
2013-01-13 07:04:00,53.9,53.3,30.08,SW,236,0.0,0.0,98,0.00,CLR,,0.00,WeatherDisplay:10.37,2013-01-13 12:04:00,
2013-01-13 07:09:00,53.9,53.6,30.07,SW,236,0.0,0.0,99,0.00,CLR,,0.00,WeatherDisplay:10.37,2013-01-13 12:09:00,
2013-01-13 07:14:00,53.8,53.2,30.08,WSW,237,0.0,0.0,98,0.00,CLR,,0.00,WeatherDisplay:10.37,2013-01-13 12:14:00,
2013-01-13 07:19:00,53.9,53.6,30.08,SW,236,0.0,0.0,99,0.00,CLR,,0.00,WeatherDisplay:10.37,2013-01-13 12:19:00,
2013-01-13 07:24:00,54.1,53.8,30.08,SW,236,0.0,0.0,99,0.00,CLR,,0.00,WeatherDisplay:10.37,2013-01-13 12:24:00,
2013-01-13 07:30:00,53.9,53.6,30.08,SW,236,0.0,0.0,99,0.00,CLR,,0.00,WeatherDisplay:10.37,2013-01-13 12:30:00,
2013-01-13 07:36:00,54.0,53.7,30.08,SW,233,0.0,1.1,99,0.00,CLR,,0.00,WeatherDisplay:10.37,2013-01-13 12:36:00,
2013-01-13 07:41:00,54.0,53.7,30.08,SW,233,0.0,0.0,99,0.00,CLR,,0.00,WeatherDisplay:10.37,2013-01-13 12:41:00,
2013-01-13 07:46:00,53.9,53.6,30.08,SW,233,0.0,0.0,99,0.00,CLR,,0.00,WeatherDisplay:10.37,2013-01-13 12:46:00,
2013-01-13 07:51:00,54.0,53.7,30.08,SW,233,0.0,0.0,99,0.00,CLR,,0.00,WeatherDisplay:10.37,2013-01-13 12:51:00,
2013-01-13 07:56:00,54.2,53.9,30.08,SW,233,0.0,0.0,99,0.00,CLR,,0.00,WeatherDisplay:10.37,2013-01-13 12:56:00,
2013-01-13 08:01:00,54.1,53.8,30.08,WSW,257,0.2,1.0,99,0.00,CLR,,0.00,WeatherDisplay:10.37,2013-01-13 13:01:00,
2013-01-13 08:06:00,53.9,53.6,30.08,WSW,253,0.5,1.1,99,0.00,CLR,,0.00,WeatherDisplay:10.37,2013-01-13 13:06:00,
2013-01-13 08:11:00,54.0,53.7,30.08,WSW,257,0.0,0.0,99,0.00,CLR,,0.00,WeatherDisplay:10.37,2013-01-13 13:11:00,
2013-01-13 08:16:00,54.1,53.8,30.09,WSW,258,0.4,1.0,99,0.00,CLR,,0.00,WeatherDisplay:10.37,2013-01-13 13:16:00,
2013-01-13 08:22:00,54.1,53.8,30.09,WSW,257,0.0,0.0,99,0.00,CLR,,0.00,WeatherDisplay:10.37,2013-01-13 13:22:00,
2013-01-13 08:28:00,54.3,54.0,30.08,WSW,257,0.1,1.0,99,0.00,CLR,,0.00,WeatherDisplay:10.37,2013-01-13 13:28:00,
2013-01-13 08:34:00,54.6,54.3,30.08,WSW,257,0.0,0.0,99,0.00,CLR,,0.00,WeatherDisplay:10.37,2013-01-13 13:34:00,
2013-01-13 08:39:00,54.9,54.6,30.08,WSW,257,0.1,1.0,99,0.00,CLR,,0.00,WeatherDisplay:10.37,2013-01-13 13:39:00,
2013-01-13 08:44:00,55.0,54.7,30.09,WSW,257,0.0,0.0,99,0.00,CLR,,0.00,WeatherDisplay:10.37,2013-01-13 13:44:00,
2013-01-13 08:49:00,55.1,54.8,30.10,WSW,256,0.0,0.0,99,0.00,CLR,,0.00,WeatherDisplay:10.37,2013-01-13 13:49:00,
2013-01-13 08:55:00,55.3,55.0,30.11,NNW,327,0.0,1.1,99,0.00,CLR,,0.00,WeatherDisplay:10.37,2013-01-13 13:55:00,
2013-01-13 09:00:00,55.4,55.1,30.11,SE,125,0.2,1.1,99,0.00,CLR,,0.00,WeatherDisplay:10.37,2013-01-13 14:00:00,
2013-01-13 09:05:00,55.7,55.4,30.11,NNE,19,0.7,2.0,99,0.00,CLR,,0.00,WeatherDisplay:10.37,2013-01-13 14:05:00,
2013-01-13 09:10:00,55.8,55.5,30.11,North,4,1.7,2.3,99,0.00,CLR,,0.00,WeatherDisplay:10.37,2013-01-13 14:10:00,
2013-01-13 09:15:00,56.0,55.7,30.11,North,355,1.2,2.0,99,0.00,CLR,,0.00,WeatherDisplay:10.37,2013-01-13 14:15:00,
2013-01-13 09:20:00,56.2,55.9,30.11,North,349,0.1,1.1,99,0.00,OVC,,0.00,WeatherDisplay:10.37,2013-01-13 14:20:00,
2013-01-13 09:25:00,56.4,56.1,30.11,East,98,0.0,1.1,99,0.00,OVC,,0.00,WeatherDisplay:10.37,2013-01-13 14:25:00,
2013-01-13 09:30:00,56.4,56.1,30.11,East,98,0.0,1.1,99,0.00,OVC,,0.00,WeatherDisplay:10.37,2013-01-13 14:30:00,
2013-01-13 09:35:00,56.3,56.0,30.11,NNE,31,0.0,2.3,99,0.00,OVC,,0.00,WeatherDisplay:10.37,2013-01-13 14:35:00,
2013-01-13 09:41:00,56.3,56.0,30.11,NNE,16,0.8,2.0,99,0.00,OVC,,0.00,WeatherDisplay:10.37,2013-01-13 14:41:00,
2013-01-13 09:46:00,56.4,56.1,30.11,NNE,14,0.0,0.0,99,0.00,OVC,,0.00,WeatherDisplay:10.37,2013-01-13 14:46:00,
2013-01-13 09:51:00,56.5,56.2,30.11,NNE,15,0.0,0.0,99,0.00,OVC,,0.00,WeatherDisplay:10.37,2013-01-13 14:51:00,
2013-01-13 09:56:00,56.7,56.4,30.11,NNE,16,0.0,0.0,99,0.00,OVC,,0.00,WeatherDisplay:10.37,2013-01-13 14:56:00,
2013-01-13 10:01:00,56.8,56.5,30.11,WSW,253,0.1,1.0,99,0.00,OVC,,0.00,WeatherDisplay:10.37,2013-01-13 15:01:00,
2013-01-13 10:06:00,57.2,56.9,30.11,NW,317,0.5,1.1,99,0.00,OVC,,0.00,WeatherDisplay:10.37,2013-01-13 15:06:00,
2013-01-13 10:11:00,57.1,56.8,30.11,NW,317,0.0,0.0,99,0.00,OVC,,0.00,WeatherDisplay:10.37,2013-01-13 15:11:00,
2013-01-13 10:16:00,57.3,57.0,30.11,NW,317,0.0,0.0,99,0.00,OVC,,0.00,WeatherDisplay:10.37,2013-01-13 15:16:00,
2013-01-13 10:21:00,57.2,56.9,30.11,SW,233,0.9,2.0,99,0.00,OVC,,0.00,WeatherDisplay:10.37,2013-01-13 15:21:00,
2013-01-13 10:26:00,57.2,56.9,30.11,WNW,292,0.0,1.1,99,0.00,OVC,,0.00,WeatherDisplay:10.37,2013-01-13 15:26:00,
2013-01-13 10:31:00,57.2,56.9,30.11,SSW,195,0.0,2.3,99,0.00,OVC,,0.00,WeatherDisplay:10.37,2013-01-13 15:31:00,
2013-01-13 10:36:00,57.4,57.1,30.11,SSW,195,0.0,0.0,99,0.00,FEW,,0.00,WeatherDisplay:10.37,2013-01-13 15:36:00,
2013-01-13 10:41:00,57.4,57.1,30.11,SSW,203,0.1,1.0,99,0.00,FEW,,0.00,WeatherDisplay:10.37,2013-01-13 15:41:00,
2013-01-13 10:46:00,57.4,57.1,30.11,NW,326,0.0,0.0,99,0.00,FEW,,0.00,WeatherDisplay:10.37,2013-01-13 15:46:00,
2013-01-13 10:51:00,57.5,57.2,30.11,WSW,253,0.1,2.3,99,0.00,FEW,,0.00,WeatherDisplay:10.37,2013-01-13 15:51:00,
2013-01-13 10:56:00,57.8,57.5,30.10,NE,43,0.1,1.1,99,0.00,FEW,,0.00,WeatherDisplay:10.37,2013-01-13 15:56:00,
2013-01-13 11:02:00,57.8,57.5,30.10,WSW,247,0.0,2.3,99,0.00,CLR,,0.00,WeatherDisplay:10.37,2013-01-13 16:02:00,
2013-01-13 11:07:00,57.9,57.6,30.10,West,281,0.5,1.1,99,0.00,CLR,,0.00,WeatherDisplay:10.37,2013-01-13 16:07:00,
2013-01-13 11:13:00,58.0,57.7,30.10,West,264,0.2,1.1,99,0.00,CLR,,0.00,WeatherDisplay:10.37,2013-01-13 16:13:00,
2013-01-13 11:18:00,58.3,58.0,30.09,SW,222,0.8,2.0,99,0.00,CLR,,0.00,WeatherDisplay:10.37,2013-01-13 16:18:00,
2013-01-13 11:24:00,58.4,58.1,30.09,SW,222,1.5,3.5,99,0.00,CLR,,0.00,WeatherDisplay:10.37,2013-01-13 16:24:00,
2013-01-13 11:29:00,58.6,58.0,30.08,West,266,0.1,1.1,98,0.00,CLR,,0.00,WeatherDisplay:10.37,2013-01-13 16:29:00,
2013-01-13 11:34:00,58.9,58.3,30.08,WSW,245,0.5,3.5,98,0.00,CLR,,0.00,WeatherDisplay:10.37,2013-01-13 16:34:00,
2013-01-13 11:39:00,59.0,58.4,30.08,SSW,204,0.0,1.1,98,0.00,CLR,,0.00,WeatherDisplay:10.37,2013-01-13 16:39:00,
2013-01-13 11:45:00,59.5,58.9,30.08,SW,220,0.0,0.0,98,0.00,CLR,,0.00,WeatherDisplay:10.37,2013-01-13 16:45:00,
2013-01-13 11:50:00,60.1,59.2,30.07,WSW,256,0.4,1.1,97,0.00,CLR,,0.00,WeatherDisplay:10.37,2013-01-13 16:50:00,
2013-01-13 11:55:00,60.8,59.7,30.07,WSW,247,0.0,1.1,96,0.00,CLR,,0.00,WeatherDisplay:10.37,2013-01-13 16:55:00,
2013-01-13 12:00:00,61.5,60.3,30.06,North,10,0.4,1.0,96,0.00,CLR,,0.00,WeatherDisplay:10.37,2013-01-13 17:00:00,
2013-01-13 12:06:00,62.7,60.0,30.06,NE,46,1.5,2.0,91,0.00,CLR,,0.00,WeatherDisplay:10.37,2013-01-13 17:06:00,
2013-01-13 12:11:00,63.4,60.1,30.05,East,79,0.8,2.0,89,0.00,CLR,,0.00,WeatherDisplay:10.37,2013-01-13 17:11:00,
2013-01-13 12:16:00,64.2,60.6,30.05,West,276,0.1,1.1,88,0.00,CLR,,0.00,WeatherDisplay:10.37,2013-01-13 17:16:00,
2013-01-13 12:21:00,64.9,60.3,30.05,East,84,0.2,1.1,85,0.00,CLR,,0.00,WeatherDisplay:10.37,2013-01-13 17:21:00,
2013-01-13 12:26:00,65.3,60.3,30.04,NE,53,0.1,2.3,84,0.00,CLR,,0.00,WeatherDisplay:10.37,2013-01-13 17:26:00,
2013-01-13 12:31:00,65.8,60.2,30.04,WSW,241,0.1,1.1,82,0.00,CLR,,0.00,WeatherDisplay:10.37,2013-01-13 17:31:00,
2013-01-13 12:36:00,66.2,60.5,30.04,North,4,0.3,2.3,82,0.00,CLR,,0.00,WeatherDisplay:10.37,2013-01-13 17:36:00,
2013-01-13 12:41:00,66.9,60.9,30.04,West,275,0.1,2.3,81,0.00,CLR,,0.00,WeatherDisplay:10.37,2013-01-13 17:41:00,
2013-01-13 12:46:00,67.3,60.9,30.04,West,280,0.1,1.0,80,0.00,CLR,,0.00,WeatherDisplay:10.37,2013-01-13 17:46:00,
2013-01-13 12:51:00,67.8,61.0,30.03,NE,37,0.8,1.1,79,0.00,CLR,,0.00,WeatherDisplay:10.37,2013-01-13 17:51:00,
2013-01-13 12:56:00,68.2,60.7,30.03,North,1,1.3,3.5,77,0.00,CLR,,0.00,WeatherDisplay:10.37,2013-01-13 17:56:00,
2013-01-13 13:01:00,68.5,60.6,30.03,North,1,0.0,0.0,76,0.00,CLR,,0.00,WeatherDisplay:10.37,2013-01-13 18:01:00,
2013-01-13 13:06:00,68.7,60.8,30.03,WSW,238,0.2,1.0,76,0.00,CLR,,0.00,WeatherDisplay:10.37,2013-01-13 18:06:00,
2013-01-13 13:11:00,69.1,61.2,30.02,SSW,208,0.0,2.3,76,0.00,CLR,,0.00,WeatherDisplay:10.37,2013-01-13 18:11:00,
2013-01-13 13:16:00,69.0,61.1,30.01,East,96,0.4,1.1,76,0.00,CLR,,0.00,WeatherDisplay:10.37,2013-01-13 18:16:00,
2013-01-13 13:21:00,69.2,60.9,30.01,SE,125,0.0,1.0,75,0.00,CLR,,0.00,WeatherDisplay:10.37,2013-01-13 18:21:00,
2013-01-13 13:26:00,69.7,61.4,30.01,SE,134,1.0,2.0,75,0.00,CLR,,0.00,WeatherDisplay:10.37,2013-01-13 18:26:00,
2013-01-13 13:31:00,70.1,61.4,30.01,WSW,255,0.1,1.1,74,0.00,CLR,,0.00,WeatherDisplay:10.37,2013-01-13 18:31:00,
2013-01-13 13:36:00,70.2,61.1,30.01,ESE,113,0.4,3.0,73,0.00,CLR,,0.00,WeatherDisplay:10.37,2013-01-13 18:36:00,
2013-01-13 13:41:00,70.3,61.2,30.01,ESE,110,0.1,1.0,73,0.00,CLR,,0.00,WeatherDisplay:10.37,2013-01-13 18:41:00,
2013-01-13 13:46:00,70.6,61.1,30.01,ESE,107,0.5,2.3,72,0.00,CLR,,0.00,WeatherDisplay:10.37,2013-01-13 18:46:00,
2013-01-13 13:51:00,70.5,61.0,30.01,East,98,0.7,2.0,72,0.00,CLR,,0.00,WeatherDisplay:10.37,2013-01-13 18:51:00,
2013-01-13 13:56:00,70.7,61.6,30.01,ESE,121,0.0,0.0,73,0.00,CLR,,0.00,WeatherDisplay:10.37,2013-01-13 18:56:00,
2013-01-13 14:01:00,71.5,61.6,30.01,East,94,2.4,4.0,71,0.00,CLR,,0.00,WeatherDisplay:10.37,2013-01-13 19:01:00,
2013-01-13 14:07:00,71.4,61.5,30.01,SSE,159,0.3,1.1,71,0.00,CLR,,0.00,WeatherDisplay:10.37,2013-01-13 19:07:00,
2013-01-13 14:12:00,71.7,61.4,30.01,East,86,1.6,4.0,70,0.00,CLR,,0.00,WeatherDisplay:10.37,2013-01-13 19:12:00,
2013-01-13 14:17:00,71.5,61.2,30.01,ESE,107,1.4,3.5,70,0.00,CLR,,0.00,WeatherDisplay:10.37,2013-01-13 19:17:00,
2013-01-13 14:22:00,71.0,61.1,30.01,East,80,0.1,3.5,71,0.00,CLR,,0.00,WeatherDisplay:10.37,2013-01-13 19:22:00,
2013-01-13 14:27:00,70.9,61.4,30.01,ESE,106,0.2,2.3,72,0.00,CLR,,0.00,WeatherDisplay:10.37,2013-01-13 19:27:00,
2013-01-13 14:32:00,71.3,61.4,30.01,ESE,105,0.0,1.0,71,0.00,CLR,,0.00,WeatherDisplay:10.37,2013-01-13 19:32:00,
2013-01-13 14:37:00,71.4,60.7,30.01,ESE,119,1.9,4.0,69,0.00,CLR,,0.00,WeatherDisplay:10.37,2013-01-13 19:37:00,
2013-01-13 14:42:00,71.3,60.6,30.01,East,86,0.0,0.0,69,0.00,CLR,,0.00,WeatherDisplay:10.37,2013-01-13 19:42:00,
2013-01-13 14:47:00,71.3,61.0,30.01,ENE,68,0.6,3.0,70,0.00,CLR,,0.00,WeatherDisplay:10.37,2013-01-13 19:47:00,
2013-01-13 14:52:00,71.3,60.2,30.01,SE,125,0.5,3.5,68,0.00,CLR,,0.00,WeatherDisplay:10.37,2013-01-13 19:52:00,
2013-01-13 14:57:00,71.6,60.1,30.01,West,275,1.3,3.5,67,0.00,CLR,,0.00,WeatherDisplay:10.37,2013-01-13 19:57:00,
2013-01-13 15:02:00,72.0,60.4,30.01,SE,141,0.3,3.5,67,0.00,CLR,,0.00,WeatherDisplay:10.37,2013-01-13 20:02:00,
2013-01-13 15:07:00,72.1,59.7,30.01,NNE,23,0.3,5.8,65,0.00,CLR,,0.00,WeatherDisplay:10.37,2013-01-13 20:07:00,
2013-01-13 15:12:00,72.1,59.7,30.01,WNW,282,1.6,4.6,65,0.00,CLR,,0.00,WeatherDisplay:10.37,2013-01-13 20:12:00,
2013-01-13 15:17:00,71.7,59.7,30.02,SW,228,3.1,10.0,66,0.00,CLR,,0.00,WeatherDisplay:10.37,2013-01-13 20:17:00,
2013-01-13 15:22:00,71.1,59.6,30.02,NNE,23,2.5,5.0,67,0.00,CLR,,0.00,WeatherDisplay:10.37,2013-01-13 20:22:00,
2013-01-13 15:27:00,70.9,59.4,30.02,ESE,114,1.7,4.6,67,0.00,CLR,,0.00,WeatherDisplay:10.37,2013-01-13 20:27:00,
2013-01-13 15:32:00,70.5,59.4,30.02,SSW,212,1.8,4.0,68,0.00,CLR,,0.00,WeatherDisplay:10.37,2013-01-13 20:32:00,
2013-01-13 15:37:00,70.1,59.0,30.02,East,98,1.3,3.5,68,0.00,CLR,,0.00,WeatherDisplay:10.37,2013-01-13 20:37:00,
2013-01-13 15:42:00,70.1,59.5,30.02,SW,232,1.2,4.6,69,0.00,CLR,,0.00,WeatherDisplay:10.37,2013-01-13 20:42:00,
2013-01-13 15:47:00,70.1,59.5,30.02,NNW,328,0.3,2.3,69,0.00,CLR,,0.00,WeatherDisplay:10.37,2013-01-13 20:47:00,
2013-01-13 15:52:00,70.1,59.5,30.02,ESE,110,0.7,3.5,69,0.00,CLR,,0.00,WeatherDisplay:10.37,2013-01-13 20:52:00,
2013-01-13 15:57:00,69.9,59.3,30.03,SE,134,0.9,4.6,69,0.00,CLR,,0.00,WeatherDisplay:10.37,2013-01-13 20:57:00,
2013-01-13 16:02:00,69.9,59.3,30.03,WSW,257,1.2,8.1,69,0.00,CLR,,0.00,WeatherDisplay:10.37,2013-01-13 21:02:00,
2013-01-13 16:07:00,69.9,59.3,30.03,SW,224,1.8,5.0,69,0.00,CLR,,0.00,WeatherDisplay:10.37,2013-01-13 21:07:00,
2013-01-13 16:12:00,69.9,58.9,30.03,NW,309,3.1,6.9,68,0.00,CLR,,0.00,WeatherDisplay:10.37,2013-01-13 21:12:00,
2013-01-13 16:17:00,69.8,58.8,30.04,SW,215,1.9,5.0,68,0.00,FEW,,0.00,WeatherDisplay:10.37,2013-01-13 21:17:00,
2013-01-13 16:22:00,69.6,58.6,30.04,SSW,193,0.8,2.3,68,0.00,FEW,,0.00,WeatherDisplay:10.37,2013-01-13 21:22:00,
2013-01-13 16:27:00,69.4,58.4,30.04,West,260,0.7,2.3,68,0.00,FEW,,0.00,WeatherDisplay:10.37,2013-01-13 21:27:00,
2013-01-13 16:32:00,69.0,58.4,30.04,SE,143,0.8,4.6,69,0.00,FEW,,0.00,WeatherDisplay:10.37,2013-01-13 21:32:00,
2013-01-13 16:37:00,68.7,58.5,30.04,SSW,195,0.9,2.3,70,0.00,FEW,,0.00,WeatherDisplay:10.37,2013-01-13 21:37:00,
2013-01-13 16:42:00,68.4,58.2,30.04,SSE,149,0.5,2.3,70,0.00,FEW,,0.00,WeatherDisplay:10.37,2013-01-13 21:42:00,
2013-01-13 16:47:00,68.2,58.4,30.04,ESE,121,0.1,1.1,71,0.00,FEW,,0.00,WeatherDisplay:10.37,2013-01-13 21:47:00,
2013-01-13 16:52:00,67.9,58.5,30.04,SE,141,0.5,1.1,72,0.00,FEW,,0.00,WeatherDisplay:10.37,2013-01-13 21:52:00,
2013-01-13 16:57:00,67.6,58.2,30.04,SE,133,0.6,1.1,72,0.00,FEW,,0.00,WeatherDisplay:10.37,2013-01-13 21:57:00,
2013-01-13 17:02:00,67.4,58.4,30.04,WSW,245,0.1,1.1,73,0.00,FEW,,0.00,WeatherDisplay:10.37,2013-01-13 22:02:00,
2013-01-13 17:07:00,67.1,58.2,30.04,ESE,107,0.4,1.1,73,0.00,FEW,,0.00,WeatherDisplay:10.37,2013-01-13 22:07:00,
2013-01-13 17:12:00,66.9,58.3,30.04,East,86,0.7,2.3,74,0.00,FEW,,0.00,WeatherDisplay:10.37,2013-01-13 22:12:00,
2013-01-13 17:17:00,66.7,58.1,30.04,East,93,0.3,1.0,74,0.00,FEW,,0.00,WeatherDisplay:10.37,2013-01-13 22:17:00,
2013-01-13 17:22:00,66.4,58.2,30.04,NNE,13,0.3,1.0,75,0.00,FEW,,0.00,WeatherDisplay:10.37,2013-01-13 22:22:00,
2013-01-13 17:27:00,66.2,58.0,30.04,NE,37,0.1,2.3,75,0.00,FEW,,0.00,WeatherDisplay:10.37,2013-01-13 22:27:00,
2013-01-13 17:32:00,66.0,58.2,30.04,SSE,164,0.0,1.1,76,0.00,FEW,,0.00,WeatherDisplay:10.37,2013-01-13 22:32:00,
2013-01-13 17:37:00,65.7,57.9,30.04,SSE,163,0.6,2.3,76,0.00,FEW,,0.00,WeatherDisplay:10.37,2013-01-13 22:37:00,
2013-01-13 17:42:00,65.7,58.3,30.04,East,87,1.1,2.3,77,0.00,FEW,,0.00,WeatherDisplay:10.37,2013-01-13 22:42:00,
2013-01-13 17:47:00,65.7,58.3,30.04,SSW,210,0.4,2.0,77,0.00,FEW,,0.00,WeatherDisplay:10.37,2013-01-13 22:47:00,
2013-01-13 17:52:00,65.4,58.4,30.04,East,86,0.0,3.5,78,0.00,FEW,,0.00,WeatherDisplay:10.37,2013-01-13 22:52:00,
2013-01-13 17:57:00,65.4,58.4,30.04,ESE,121,0.0,2.3,78,0.00,FEW,,0.00,WeatherDisplay:10.37,2013-01-13 22:57:00,
2013-01-13 18:02:00,65.4,58.4,30.04,ESE,107,0.8,1.1,78,0.00,FEW,,0.00,WeatherDisplay:10.37,2013-01-13 23:02:00,
2013-01-13 18:07:00,65.5,58.5,30.04,ESE,107,0.2,1.0,78,0.00,FEW,,0.00,WeatherDisplay:10.37,2013-01-13 23:07:00,
2013-01-13 18:12:00,65.3,58.3,30.04,NNE,18,0.3,1.1,78,0.00,FEW,,0.00,WeatherDisplay:10.37,2013-01-13 23:12:00,
2013-01-13 18:17:00,65.3,58.6,30.04,ESE,113,1.5,2.0,79,0.00,FEW,,0.00,WeatherDisplay:10.37,2013-01-13 23:17:00,
2013-01-13 18:23:00,65.4,58.4,30.04,SW,232,1.1,3.0,78,0.00,FEW,,0.00,WeatherDisplay:10.37,2013-01-13 23:23:00,
2013-01-13 18:28:00,64.9,58.2,30.04,SW,235,0.0,0.0,79,0.00,FEW,,0.00,WeatherDisplay:10.37,2013-01-13 23:28:00,
2013-01-13 18:33:00,64.8,58.5,30.04,WNW,283,0.5,1.1,80,0.00,FEW,,0.00,WeatherDisplay:10.37,2013-01-13 23:33:00,
2013-01-13 18:38:00,64.8,58.5,30.03,WNW,295,0.0,0.0,80,0.00,FEW,,0.00,WeatherDisplay:10.37,2013-01-13 23:38:00,
2013-01-13 18:44:00,65.0,58.7,30.04,WNW,282,2.1,3.5,80,0.00,FEW,,0.00,WeatherDisplay:10.37,2013-01-13 23:44:00,
2013-01-13 18:49:00,65.0,58.3,30.03,WNW,300,0.3,2.0,79,0.00,FEW,,0.00,WeatherDisplay:10.37,2013-01-13 23:49:00,
2013-01-13 18:54:00,65.1,58.8,30.04,West,274,1.4,4.0,80,0.00,FEW,,0.00,WeatherDisplay:10.37,2013-01-13 23:54:00,
2013-01-13 18:59:00,65.0,58.7,30.04,WSW,246,1.5,7.0,80,0.00,FEW,,0.00,WeatherDisplay:10.37,2013-01-13 23:59:00,
2013-01-13 19:04:00,65.3,59.0,30.04,East,84,0.6,2.3,80,0.00,FEW,,0.00,WeatherDisplay:10.37,2013-01-14 00:04:00,
2013-01-13 19:09:00,65.1,58.8,30.04,SW,215,0.2,1.1,80,0.00,FEW,,0.00,WeatherDisplay:10.37,2013-01-14 00:09:00,
2013-01-13 19:14:00,65.0,59.0,30.03,NE,41,0.2,2.3,81,0.00,FEW,,0.00,WeatherDisplay:10.37,2013-01-14 00:14:00,
2013-01-13 19:19:00,65.0,59.0,30.03,SSW,205,0.5,1.1,81,0.00,FEW,,0.00,WeatherDisplay:10.37,2013-01-14 00:19:00,
2013-01-13 19:24:00,65.2,59.2,30.03,South,170,0.0,0.0,81,0.00,FEW,,0.00,WeatherDisplay:10.37,2013-01-14 00:24:00,
2013-01-13 19:29:00,65.3,59.0,30.03,ESE,107,1.0,0.0,80,0.00,FEW,,0.00,WeatherDisplay:10.37,2013-01-14 00:29:00,
2013-01-13 19:35:00,65.2,58.9,30.03,ENE,60,0.0,1.1,80,0.00,FEW,,0.00,WeatherDisplay:10.37,2013-01-14 00:35:00,
2013-01-13 19:40:00,65.2,59.2,30.02,East,93,1.4,2.0,81,0.00,FEW,,0.00,WeatherDisplay:10.37,2013-01-14 00:40:00,
2013-01-13 19:45:00,65.3,59.0,30.02,East,97,0.8,1.1,80,0.00,FEW,,0.00,WeatherDisplay:10.37,2013-01-14 00:45:00,
2013-01-13 19:50:00,65.1,59.1,30.02,SE,134,0.0,0.0,81,0.00,FEW,,0.00,WeatherDisplay:10.37,2013-01-14 00:50:00,
2013-01-13 19:55:00,65.0,59.0,30.02,ENE,70,0.9,2.3,81,0.00,FEW,,0.00,WeatherDisplay:10.37,2013-01-14 00:55:00,
2013-01-13 20:00:00,65.2,58.9,30.03,SSW,200,1.0,2.3,80,0.00,FEW,,0.00,WeatherDisplay:10.37,2013-01-14 01:00:00,
2013-01-13 20:06:00,65.2,58.9,30.03,SW,224,0.1,1.1,80,0.00,FEW,,0.00,WeatherDisplay:10.37,2013-01-14 01:06:00,
2013-01-13 20:11:00,64.8,58.5,30.03,SW,224,0.0,1.1,80,0.00,FEW,,0.00,WeatherDisplay:10.37,2013-01-14 01:11:00,
2013-01-13 20:16:00,64.5,58.5,30.03,NNW,345,2.8,4.0,81,0.00,FEW,,0.00,WeatherDisplay:10.37,2013-01-14 01:16:00,
2013-01-13 20:21:00,64.5,58.5,30.03,SE,143,0.3,2.3,81,0.00,FEW,,0.00,WeatherDisplay:10.37,2013-01-14 01:21:00,
2013-01-13 20:26:00,64.5,58.5,30.02,ENE,66,0.5,2.3,81,0.00,FEW,,0.00,WeatherDisplay:10.37,2013-01-14 01:26:00,
2013-01-13 20:31:00,64.5,58.5,30.02,NE,51,0.2,3.5,81,0.00,FEW,,0.00,WeatherDisplay:10.37,2013-01-14 01:31:00,
2013-01-13 20:36:00,64.4,58.4,30.02,East,100,1.1,2.3,81,0.00,FEW,,0.00,WeatherDisplay:10.37,2013-01-14 01:36:00,
2013-01-13 20:41:00,64.9,58.2,30.02,East,91,1.8,2.0,79,0.00,FEW,,0.00,WeatherDisplay:10.37,2013-01-14 01:41:00,
2013-01-13 20:46:00,64.9,58.2,30.02,North,350,2.6,3.0,79,0.00,FEW,,0.00,WeatherDisplay:10.37,2013-01-14 01:46:00,
2013-01-13 20:51:00,64.9,58.2,30.02,ESE,112,1.0,2.3,79,0.00,FEW,,0.00,WeatherDisplay:10.37,2013-01-14 01:51:00,
2013-01-13 20:56:00,64.9,58.2,30.02,North,8,0.2,2.3,79,0.00,FEW,,0.00,WeatherDisplay:10.37,2013-01-14 01:56:00,
2013-01-13 21:01:00,64.9,57.9,30.02,West,264,1.5,3.0,78,0.00,FEW,,0.00,WeatherDisplay:10.37,2013-01-14 02:01:00,
2013-01-13 21:06:00,65.2,57.4,30.02,West,259,6.5,10.0,76,0.00,FEW,,0.00,WeatherDisplay:10.37,2013-01-14 02:06:00,
2013-01-13 21:11:00,66.1,57.6,30.02,SSE,165,6.2,13.8,74,0.00,FEW,,0.00,WeatherDisplay:10.37,2013-01-14 02:11:00,
2013-01-13 21:16:00,66.4,57.5,30.02,NW,311,3.9,10.0,73,0.00,FEW,,0.00,WeatherDisplay:10.37,2013-01-14 02:16:00,
2013-01-13 21:21:00,66.7,57.4,30.02,NW,319,7.7,11.5,72,0.00,SCT,,0.00,WeatherDisplay:10.37,2013-01-14 02:21:00,
2013-01-13 21:27:00,66.8,57.5,30.03,West,274,5.2,13.0,72,0.00,SCT,,0.00,WeatherDisplay:10.37,2013-01-14 02:27:00,
2013-01-13 21:32:00,66.9,57.2,30.02,SSW,203,2.3,10.4,71,0.00,SCT,,0.00,WeatherDisplay:10.37,2013-01-14 02:32:00,
2013-01-13 21:37:00,66.9,57.2,30.02,WSW,238,2.8,8.1,71,0.00,SCT,,0.00,WeatherDisplay:10.37,2013-01-14 02:37:00,
2013-01-13 21:42:00,66.9,57.2,30.02,SSE,164,7.3,12.0,71,0.00,SCT,,0.00,WeatherDisplay:10.37,2013-01-14 02:42:00,
2013-01-13 21:47:00,66.9,57.2,30.02,SW,226,2.9,8.1,71,0.00,SCT,,0.00,WeatherDisplay:10.37,2013-01-14 02:47:00,
2013-01-13 21:52:00,66.9,57.2,30.02,SW,231,6.0,10.4,71,0.00,SCT,,0.00,WeatherDisplay:10.37,2013-01-14 02:52:00,
2013-01-13 21:57:00,67.2,57.5,30.02,SW,223,5.5,11.5,71,0.00,SCT,,0.00,WeatherDisplay:10.37,2013-01-14 02:57:00,
2013-01-13 22:02:00,67.2,57.1,30.02,SE,141,6.7,16.1,70,0.00,SCT,,0.00,WeatherDisplay:10.37,2013-01-14 03:02:00,
2013-01-13 22:07:00,67.1,57.0,30.02,South,177,6.4,9.2,70,0.00,SCT,,0.00,WeatherDisplay:10.37,2013-01-14 03:07:00,
2013-01-13 22:12:00,66.9,57.2,30.01,South,170,6.5,15.0,71,0.00,SCT,,0.00,WeatherDisplay:10.37,2013-01-14 03:12:00,
2013-01-13 22:17:00,67.0,57.3,30.01,SW,225,4.2,10.4,71,0.00,FEW,,0.00,WeatherDisplay:10.37,2013-01-14 03:17:00,
2013-01-13 22:22:00,67.1,57.4,30.02,South,172,1.9,8.1,71,0.00,FEW,,0.00,WeatherDisplay:10.37,2013-01-14 03:22:00,
2013-01-13 22:27:00,67.0,57.3,30.02,West,263,3.1,8.1,71,0.00,FEW,,0.00,WeatherDisplay:10.37,2013-01-14 03:27:00,
2013-01-13 22:32:00,67.0,57.3,30.02,WSW,250,2.6,6.0,71,0.00,FEW,,0.00,WeatherDisplay:10.37,2013-01-14 03:32:00,
2013-01-13 22:37:00,67.1,57.4,30.03,ESE,118,1.0,2.3,71,0.00,FEW,,0.00,WeatherDisplay:10.37,2013-01-14 03:37:00,
2013-01-13 22:42:00,66.9,57.2,30.03,North,352,1.3,3.0,71,0.00,FEW,,0.00,WeatherDisplay:10.37,2013-01-14 03:42:00,
2013-01-13 22:47:00,66.9,57.2,30.03,South,188,2.1,8.1,71,0.00,FEW,,0.00,WeatherDisplay:10.37,2013-01-14 03:47:00,
2013-01-13 22:52:00,66.9,57.2,30.03,SSW,212,1.9,4.6,71,0.00,FEW,,0.00,WeatherDisplay:10.37,2013-01-14 03:52:00,
2013-01-13 22:57:00,66.9,57.2,30.04,NW,317,1.8,4.0,71,0.00,FEW,,0.00,WeatherDisplay:10.37,2013-01-14 03:57:00,
2013-01-13 23:02:00,66.9,57.6,30.04,West,263,1.6,3.0,72,0.00,FEW,,0.00,WeatherDisplay:10.37,2013-01-14 04:02:00,
2013-01-13 23:07:00,66.7,57.4,30.04,SW,226,1.7,3.0,72,0.00,BKN,,0.00,WeatherDisplay:10.37,2013-01-14 04:07:00,
2013-01-13 23:12:00,66.9,57.6,30.05,SW,226,3.4,8.0,72,0.00,BKN,,0.00,WeatherDisplay:10.37,2013-01-14 04:12:00,
2013-01-13 23:17:00,67.1,57.4,30.05,SW,224,1.9,3.5,71,0.00,BKN,,0.00,WeatherDisplay:10.37,2013-01-14 04:17:00,
2013-01-13 23:22:00,66.9,57.6,30.05,SW,214,0.3,3.5,72,0.00,BKN,,0.00,WeatherDisplay:10.37,2013-01-14 04:22:00,
2013-01-13 23:27:00,66.9,57.6,30.05,WNW,290,0.9,2.3,72,0.00,BKN,,0.00,WeatherDisplay:10.37,2013-01-14 04:27:00,
2013-01-13 23:32:00,66.7,57.4,30.05,NE,39,1.6,2.0,72,0.00,BKN,,0.00,WeatherDisplay:10.37,2013-01-14 04:32:00,
2013-01-13 23:37:00,66.7,57.8,30.05,WSW,255,1.5,3.0,73,0.00,BKN,,0.00,WeatherDisplay:10.37,2013-01-14 04:37:00,
2013-01-13 23:42:00,67.0,57.7,30.05,ENE,67,4.6,8.0,72,0.00,BKN,,0.00,WeatherDisplay:10.37,2013-01-14 04:42:00,
2013-01-13 23:47:00,67.1,57.8,30.06,NNW,340,0.0,1.0,72,0.00,BKN,,0.00,WeatherDisplay:10.37,2013-01-14 04:47:00,
2013-01-13 23:52:00,67.1,57.8,30.05,NE,49,2.2,3.5,72,0.00,BKN,,0.00,WeatherDisplay:10.37,2013-01-14 04:52:00,
2013-01-13 23:57:00,66.8,57.9,30.05,SE,129,0.0,1.1,73,0.00,BKN,,0.00,WeatherDisplay:10.37,2013-01-14 04:57:00,